This is the latest recevied weather packets stored in our database for station/object S56VIL-11. If no packets are shown the sender has not sent any weather packets the latest 10 day(s).
| Time | Temp. | Humidity | Pressure | Rain* | Wind** | Luminosity | Snow |
|---|---|---|---|---|---|---|---|
| 1777671628 | 10° C | 54% | 1037.8 hPa | - | - | - | - |
| 1777670728 | 10° C | 54% | 1037.7 hPa | - | - | - | - |
| 1777669827 | 10° C | 54% | 1037.6 hPa | - | - | - | - |
| 1777668928 | 10.56° C | 54% | 1037.7 hPa | - | - | - | - |
| 1777668027 | 10° C | 54% | 1037.6 hPa | - | - | - | - |
| 1777667138 | 10° C | 54% | 1037.6 hPa | - | - | - | - |
| 1777666225 | 10.56° C | 54% | 1037.4 hPa | - | - | - | - |
| 1777665325 | 10.56° C | 54% | 1037.3 hPa | - | - | - | - |
| 1777664425 | 10.56° C | 54% | 1037.1 hPa | - | - | - | - |
| 1777663525 | 11.11° C | 53% | 1037 hPa | - | - | - | - |
| 1777662625 | 11.11° C | 54% | 1036.9 hPa | - | - | - | - |
| 1777661725 | 11.11° C | 54% | 1036.6 hPa | - | - | - | - |
| 1777660825 | 11.11° C | 53% | 1036.5 hPa | - | - | - | - |
| 1777659925 | 11.67° C | 53% | 1036.2 hPa | - | - | - | - |
| 1777659025 | 11.67° C | 54% | 1036.1 hPa | - | - | - | - |
| 1777658125 | 12.22° C | 53% | 1035.9 hPa | - | - | - | - |
| 1777657225 | 12.78° C | 53% | 1035.9 hPa | - | - | - | - |
| 1777656324 | 13.33° C | 53% | 1035.8 hPa | - | - | - | - |
| 1777655424 | 15° C | 53% | 1035.7 hPa | - | - | - | - |
| 1777654524 | 16.67° C | 53% | 1035.6 hPa | - | - | - | - |
| 1777653624 | 20° C | 53% | 1035.5 hPa | - | - | - | - |
| 1777652724 | 22.22° C | 52% | 1035.5 hPa | - | - | - | - |
| 1777651824 | 22.78° C | 52% | 1035.4 hPa | - | - | - | - |
| 1777650924 | 20.56° C | 52% | 1035.4 hPa | - | - | - | - |
| 1777650024 | 20.56° C | 52% | 1035.5 hPa | - | - | - | - |
* Rain since midnight (hover to see other rain measurements)
** Current wind speed in m/s (hover to see current wind gust speed)